User: anonymous   Login
Location: Unspecified
(0.0000°N, 0.0000°E)
Time: 00:02:27
(UTC+00:00)
Language:

TACSAT 4 - Orbit

View from above orbital plane
View from above orbital plane
View from above satellite
View from above satellite

Ground track
Ground track

The orbit data is extracted from the following two-line orbital elements,

1 37818U 11052A   21331.01768580 -.00000253  00000-0 -21593-3 0  9996
2 37818  63.0024 155.4297 4654943 234.5968 336.8682  6.02642962223717
Epoch (UTC): 27 November 2021 00:25:28
Eccentricity: 0.4654943
inclination: 63.0024°
perigee height: 440 km
apogee height: 12315 km
right ascension of ascending node: 155.4297°
argument of perigee: 234.5968°
revolutions per day: 6.02642962
mean anomaly at epoch: 336.8682°
orbit number at epoch: 22371

The dashed part of the orbit path shows where the satellite is in the earth's shadow,  

DLR